,

(GMT )
Al Udeid

Weather History for KQIR - April, 2014

Change the Weather History Date:

Monday, April 7, 2014

  Actual Average Record
Temperature  
Mean Temperature 74 °F -  
Max Temperature 88 °F - - ()
Min Temperature 59 °F - - ()
Cooling Degree Days 8    
Growing Degree Days 24 (Base 50)    
Moisture  
Dew Point 49 °F    
Average Humidity 47    
Maximum Humidity 74    
Minimum Humidity 15    
Precipitation  
Precipitation 0.00 in - - ()
Sea Level Pressure  
Sea Level Pressure 30.06 in    
Wind  
Wind Speed 5 mph ()    
Max Wind Speed 13 mph    
Max Gust Speed -    
Visibility 6.2 miles    
Events      
Averages and records for this station are not official NWS values.
T = Trace of Precipitation, MM = Missing Value Source: Averaged Metar Reports

Daily Weather History Graph

Daily Weather History Graph

Search for Another Location

Airport or City:

Trip Planner

Search our weather history database for the weather conditions in past years. The results will help you decide how hot, cold, wet, or windy it might be!

Date:

Astronomy

Apr. 07, 2014 Rise Set
Actual Time 5:20 AM +03 5:53 PM +03
Civil Twilight 4:57 AM +03 6:16 PM +03
Nautical Twilight 4:30 AM +03 6:43 PM +03
Astronomical Twilight 4:02 AM +03 7:11 PM +03
Moon 11:11 AM +03 (4/7) No Moon Set
Length of Visible Light 13h 19m
Length of Day
12h 33m
Waxing Crescent, 50% of the Moon is Illuminated
Apr 7
Waxing Crescent
Apr 15
Full
Apr 22
Last Quarter
Apr 29
New
May 7
First Quarter

Hourly Weather History & Observations

Time (+03) Temp. Dew Point Humidity Pressure Visibility Wind Dir Wind Speed Gust Speed Precip Events Conditions
12:58 AM 61.7 °F 49.5 °F 64% 30.06 in 6.2 mi WNW 4.6 mph - N/A   Clear
1:58 AM 61.2 °F 49.5 °F 65% 30.04 in 6.2 mi NW 2.3 mph - N/A   Clear
2:58 AM 60.1 °F 49.5 °F 68% 30.03 in 6.2 mi NW 3.5 mph - N/A   Clear
3:58 AM 59.5 °F 49.5 °F 69% 30.04 in 6.2 mi NW 2.3 mph - N/A   Clear
4:58 AM 59.2 °F 49.5 °F 70% 30.07 in 6.2 mi NNW 4.6 mph - N/A   Clear
5:58 AM 59.2 °F 49.8 °F 71% 30.09 in 6.2 mi West 2.3 mph - N/A   Clear
6:58 AM 62.6 °F 54.1 °F 74% 30.11 in 5.6 mi WSW 4.6 mph - N/A   Haze
7:58 AM 70.2 °F 58.8 °F 67% 30.13 in 6.2 mi WNW 11.5 mph - N/A   Clear
8:58 AM 73.6 °F 52.3 °F 47% 30.13 in 6.2 mi NW 12.7 mph - N/A   Clear
9:58 AM 78.3 °F 45.7 °F 32% 30.12 in 6.2 mi NNW 10.4 mph - N/A   Clear
10:58 AM 81.9 °F 42.4 °F 25% 30.11 in 6.2 mi NNW 10.4 mph - N/A   Clear
11:58 AM 85.3 °F 42.1 °F 22% 30.08 in 6.2 mi NE 6.9 mph - N/A   Clear
12:58 PM 86.2 °F 36.0 °F 17% 30.06 in 6.2 mi Variable 2.3 mph - N/A   Clear
1:58 PM 88.3 °F 35.8 °F 15% 30.03 in 6.2 mi East 6.9 mph - N/A   Clear
2:58 PM 88.0 °F 43.5 °F 21% 30.00 in 6.2 mi ESE 9.2 mph - N/A   Clear
3:58 PM 87.1 °F 42.8 °F 21% 29.98 in 6.2 mi East 9.2 mph - N/A   Clear
4:58 PM 84.4 °F 44.8 °F 25% 29.99 in 6.2 mi East 11.5 mph - N/A   Clear
5:58 PM 80.6 °F 47.7 °F 31% 30.03 in 6.2 mi East 8.1 mph - N/A   Clear
6:58 PM 76.6 °F 54.0 °F 45% 30.01 in 6.2 mi ESE 8.1 mph - N/A   Clear
7:58 PM 73.9 °F 58.8 °F 59% 30.03 in 6.2 mi ENE 2.3 mph - N/A   Clear
8:58 PM 74.7 °F 51.3 °F 44% 30.06 in 6.2 mi Calm Calm - N/A   Clear
9:58 PM 69.4 °F 53.4 °F 57% 30.05 in 6.2 mi NW 3.5 mph - N/A   Clear
10:58 PM 68.0 °F 52.0 °F 56% 30.05 in 6.2 mi NW 3.5 mph - N/A   Clear
11:58 PM 66.4 °F 56.7 °F 71% 30.05 in 6.2 mi NW 4.6 mph - N/A   Clear